TJS-3 AKM (43917 NORAD) Tracking and Keplerian Element Data

This shows tracking and keplerian element data for the satellite.

Feedback or suggestion? Click here.




ElementValue
Catalog43917
NameTJS-3 AKM
Epoch Orbit205
Epoch Day202.92004869
Epoch Year2019
RAAN100.0681
Inclination0.1798
Eccentricity0.0003399
Argument of Perigee73.636
Mean Anonmoly155.8795
Mean Motion1.00271572
Decay Rate5.4E-07
L11 43917U 18110C 19202.92004869 .00000054 00000-0 00000-0 0 9996
L22 43917 0.1798 100.0681 0003399 73.6360 155.8795 1.00271572 2058

Live tracking and technical data element details for TJS-3 AKM (NORAD 43917). TJS-3 AKM can be tracked NOW for your location showing map with azimuth and elevation plus other details from your city location.

Track the satellite on the map from your city or location and see movement details for azimuth, elevation, latitude, longitude, range, height, and movement on the map or in text.







IsCatalogInMostPopularTable: catalog: 43917, numindb: 154
Update: records affected: 1



GetName: 43917 TJS-3 AKM

Hit Count: updated at: Mon, 22 Jul 2019 15:53:16 GMT